{"data":{"norad_id":65851,"intl_designator":"2025-222A","name":"SHIYAN-30 01","alt_names":[],"object_type":"PAYLOAD","status":"ACTIVE","operator":null,"country":"PRC","launch_date":"2025-09-29","launch_site_code":"XICLF","launch_vehicle":null,"mission":null,"orbit_class":"UNKNOWN","rcs_meters":null,"size_class":null,"mass_kg":null,"dimensions":null,"purposes":[],"wikipedia_slug":null,"has_3d_model":false,"image_url":null,"decayed_at":null,"tle_current":{"epoch":"2026-09-20T20:35:26.878272Z","epoch_age_seconds":116056,"freshness":"FRESH","line1":"1 65851U 25222A   26263.85794998  .00001119  00000+0  11104-3 0  9997","line2":"2 65851  34.9886  48.5872 0002407 242.1762 117.8699 14.91972630 53333","mean_motion":14.9197263,"eccentricity":0.0002407,"inclination_deg":34.9886,"raan_deg":48.5872,"arg_perigee_deg":242.1762,"mean_anomaly_deg":117.8699,"bstar":0.00011104,"rev_number":5333,"period_min":96.516515855924,"perigee_km":590.10764887664,"apogee_km":593.46296947627,"semimajor_km":6969.9223091765,"source":"CELESTRAK","updated_at":"2026-09-21T09:00:15.603653Z"}}}